Orbital Elements at Epoch 2459000.5 (2020-May-31.0) TDB
Reference: JPL 15 (heliocentric ecliptic J2000)
Element | Value | Uncertainty (1-sigma) | Units |
e | .1836510223836328 | 7.5593e-08 | |
a | 3.013950928942282 | 2.3769e-08 | au |
q | 2.460435759427932 | 2.2621e-07 | au |
i | 17.17537999593846 | 9.64e-06 | deg |
node | 356.9776038748563 | 1.7844e-05 | deg |
peri | 201.1329224967978 | 2.7044e-05 | deg |
M | 351.7163554320975 | 1.7539e-05 | deg |
tp | 2459044.476599851537 (2020-Jul-13.97659985) | 9.315e-05 | TDB |
period | 1911.184843432039 5.23 | 2.2608e-05 6.19e-08 | d yr |
n | .1883648257452296 | 2.2282e-09 | deg/d |
Q | 3.567466098456631 | 2.8134e-08 | au |
|
| | Orbit Determination Parameters
Additional Information
|